M I D A S
Marine Information and Data Acquisition System
Tripno 2122 of the Zeeleeuw from 2011-06-17 07:37:05 to 2011-06-17 14:36:01
Back to CruiseResearch ActivitiesStationsMapUnderway DataData graphs

EquipmentUnitsComments
TimeDGPSUTC
LatitudeDGPSDM.mWGS84
LongitudeDGPSDM.mWGS84
SpeedMeteo Stationm/sRelative wind speed
DirectionMeteo StationdegRelative wind direction
TemperatureMeteo Stationdeg CelciusAir temperature
PressureMeteo StationPaAtmospheric pressure
HumidityMeteo Station%Relative humidity
Missing or incorrect values are displayed as -999
Metereological data collected by the RV Zeeleeuw from 2011-06-17 07:27:08 to 2011-06-17 15:16:07
                                                                                    Next 1000 lines
Time Latitude Longitude Speed Direction Temperature Pressure Humidity
2011-06-17 07:27:18 51°13.637 2°56.01 3.7 13 14 101320 40
2011-06-17 07:27:23 51°13.639 2°56.006 4.6 8 13.9 101320 40
2011-06-17 07:27:28 51°13.641 2°56 3.6 9 13.9 101320 40
2011-06-17 07:27:34 51°13.643 2°55.992 2.9 13 13.9 101320 38
2011-06-17 07:27:38 51°13.645 2°55.987 3.5 23 13.9 101320 38
2011-06-17 07:27:43 51°13.647 2°55.979 3.5 13 13.9 101330 40
2011-06-17 07:27:48 51°13.649 2°55.972 1.6 25 13.9 101330 40
2011-06-17 07:27:54 51°13.652 2°55.963 0.7 22 14 101330 40
2011-06-17 07:27:58 51°13.653 2°55.957 1.6 37 14 101330 40
2011-06-17 07:28:03 51°13.655 2°55.949 1.6 39 14 101330 40
2011-06-17 07:28:08 51°13.657 2°55.941 2.4 38 14 101330 40
2011-06-17 07:28:14 51°13.659 2°55.933 2.7 35 14 101330 40
2011-06-17 07:28:18 51°13.66 2°55.929 2 39 14 101330 40
2011-06-17 07:28:23 51°13.661 2°55.925 0.7 28 14 101330 37
2011-06-17 07:28:28 51°13.662 2°55.923 0.1 42 14 101330 37
2011-06-17 07:28:33 51°13.662 2°55.92 0.4 42 14 101330 40
2011-06-17 07:28:38 51°13.663 2°55.917 0.8 32 14 101330 40
2011-06-17 07:28:43 51°13.664 2°55.913 0.8 41 14 101330 39
2011-06-17 07:28:48 51°13.665 2°55.909 0.1 27 14 101330 39
2011-06-17 07:28:52 51°13.666 2°55.905 0.7 30 14 101330 40
2011-06-17 07:28:58 51°13.667 2°55.899 1.4 23 14 101330 40
2011-06-17 07:29:02 51°13.668 2°55.895 2.4 31 14 101330 39
2011-06-17 07:29:08 51°13.669 2°55.888 3.8 31 14 101330 39
2011-06-17 07:29:13 51°13.67 2°55.882 4.2 25 14 101330 40
2011-06-17 07:29:18 51°13.671 2°55.875 2 39 14 101330 40
2011-06-17 07:29:23 51°13.673 2°55.869 3.4 23 14 101330 39
2011-06-17 07:29:28 51°13.674 2°55.863 3.3 31 14 101330 39
2011-06-17 07:29:33 51°13.676 2°55.856 5 40 14 101330 40
2011-06-17 07:29:38 51°13.679 2°55.849 4.8 31 14 101330 40
2011-06-17 07:29:43 51°13.681 2°55.842 3.7 36 14 101330 38
2011-06-17 07:29:48 51°13.683 2°55.835 5.3 38 14 101330 38
2011-06-17 07:29:53 51°13.686 2°55.827 6.4 26 14.1 101320 39
2011-06-17 07:29:58 51°13.689 2°55.82 4.9 28 14.1 101320 39
2011-06-17 07:30:03 51°13.692 2°55.814 7.2 29 14 101320 39
2011-06-17 07:30:09 51°13.696 2°55.806 5.2 24 14 101320 39
2011-06-17 07:30:14 51°13.7 2°55.799 5.6 24 14 101320 38
2011-06-17 07:30:18 51°13.702 2°55.794 2.9 18 14 101320 38
2011-06-17 07:30:23 51°13.706 2°55.787 3.7 31 14 101320 38
2011-06-17 07:30:28 51°13.71 2°55.781 4.2 19 14 101320 38
2011-06-17 07:30:34 51°13.714 2°55.773 3.4 20 14 101310 39
2011-06-17 07:30:39 51°13.718 2°55.767 1.9 28 14 101310 39
2011-06-17 07:30:43 51°13.721 2°55.762 2 28 14 101320 38
2011-06-17 07:30:48 51°13.725 2°55.755 1 12 14 101320 38
2011-06-17 07:30:53 51°13.729 2°55.749 1.8 17 14 101320 38
2011-06-17 07:30:58 51°13.733 2°55.743 2.5 25 14 101320 38
2011-06-17 07:31:03 51°13.737 2°55.737 1.7 26 14 101320 36
2011-06-17 07:31:07 51°13.74 2°55.732 2.5 18 14 101320 36
2011-06-17 07:31:13 51°13.745 2°55.725 1.6 17 14 101320 38
2011-06-17 07:31:19 51°13.751 2°55.718 2.3 15 14 101320 38
2011-06-17 07:31:24 51°13.757 2°55.712 1.5 12 14 101330 38
2011-06-17 07:31:28 51°13.762 2°55.706 1.8 4 14 101330 38
2011-06-17 07:31:33 51°13.767 2°55.699 1.1 4 14 101320 40
2011-06-17 07:31:38 51°13.773 2°55.692 0.7 26 14 101320 40
2011-06-17 07:31:43 51°13.778 2°55.685 0.8 21 14 101330 38
2011-06-17 07:31:48 51°13.784 2°55.68 0.1 12 14 101330 38
2011-06-17 07:31:53 51°13.789 2°55.673 0.1 20 14 101330 39
2011-06-17 07:31:58 51°13.794 2°55.667 0.1 348 14 101330 39
2011-06-17 07:32:03 51°13.799 2°55.661 0.1 343 14 101320 38
2011-06-17 07:32:08 51°13.804 2°55.656 0.5 5 14 101320 38
2011-06-17 07:32:13 51°13.809 2°55.651 0.6 9 14 101320 39
2011-06-17 07:32:18 51°13.814 2°55.645 0.9 5 14 101320 39
2011-06-17 07:32:23 51°13.82 2°55.64 1 8 14 101320 39
2011-06-17 07:32:28 51°13.825 2°55.636 1.1 4 14 101320 39
2011-06-17 07:32:33 51°13.83 2°55.632 1.9 359 14 101320 39
2011-06-17 07:32:38 51°13.836 2°55.628 1.9 354 14 101320 39
2011-06-17 07:32:43 51°13.841 2°55.624 1.9 356 14.1 101320 39
2011-06-17 07:32:48 51°13.847 2°55.621 0.9 349 14.1 101320 39
2011-06-17 07:32:53 51°13.852 2°55.618 0.3 347 14.1 101320 39
2011-06-17 07:32:58 51°13.858 2°55.615 0.1 351 14.1 101320 39
2011-06-17 07:33:03 51°13.864 2°55.612 0.1 348 14.1 101320 38
2011-06-17 07:33:08 51°13.869 2°55.61 0.5 336 14.1 101320 38
2011-06-17 07:33:13 51°13.875 2°55.608 0.7 340 14.1 101320 39
2011-06-17 07:33:19 51°13.881 2°55.607 0.1 343 14.1 101320 39
2011-06-17 07:33:24 51°13.886 2°55.605 1.4 341 14.1 101320 39
2011-06-17 07:33:28 51°13.89 2°55.605 4.7 337 14.1 101320 39
2011-06-17 07:33:33 51°13.896 2°55.604 4.7 336 14.1 101320 39
2011-06-17 07:33:38 51°13.901 2°55.604 4.1 328 14.1 101320 39
2011-06-17 07:33:43 51°13.906 2°55.604 3.6 334 14.1 101320 37
2011-06-17 07:33:48 51°13.911 2°55.604 2.4 316 14.1 101320 37
2011-06-17 07:33:53 51°13.916 2°55.605 3.7 317 14.1 101320 38
2011-06-17 07:33:58 51°13.921 2°55.606 3.6 38 14.1 101320 38
2011-06-17 07:34:03 51°13.926 2°55.607 3.1 24 14.1 101320 39
2011-06-17 07:34:08 51°13.931 2°55.609 4.3 238 14.1 101320 39
2011-06-17 07:34:13 51°13.935 2°55.612 5.5 22 14.1 101320 39
2011-06-17 07:34:18 51°13.939 2°55.614 5.7 38 14.1 101320 39
2011-06-17 07:34:23 51°13.943 2°55.617 5.6 22 14.1 101310 39
2011-06-17 07:34:28 51°13.947 2°55.619 4.8 32 14.1 101310 39
2011-06-17 07:34:33 51°13.95 2°55.621 4.7 20 14.1 101320 39
2011-06-17 07:34:38 51°13.953 2°55.623 5.2 33 14.1 101320 39
2011-06-17 07:34:43 51°13.954 2°55.624 5 24 14.1 101310 39
2011-06-17 07:34:48 51°13.955 2°55.625 6.6 38 14.1 101310 39
2011-06-17 07:34:53 51°13.956 2°55.624 5.5 26 14.1 101310 38
2011-06-17 07:34:57 51°13.956 2°55.623 7.4 32 14.1 101310 38
2011-06-17 07:35:02 51°13.956 2°55.62 8 21 14.1 101310 38
2011-06-17 07:35:07 51°13.956 2°55.615 6.5 247 14.1 101310 38
2011-06-17 07:35:12 51°13.956 2°55.609 6.9 20 14.1 101310 38
2011-06-17 07:35:17 51°13.956 2°55.602 7 250 14.1 101310 38
2011-06-17 07:35:21 51°13.957 2°55.596 7.9 253 14.1 101310 38
2011-06-17 07:35:26 51°13.959 2°55.589 6.5 257 14.1 101310 38
2011-06-17 07:35:31 51°13.962 2°55.581 6.5 265 14.1 101300 38
2011-06-17 07:35:36 51°13.965 2°55.573 4.9 37 14.1 101300 38
2011-06-17 07:35:41 51°13.97 2°55.565 5.4 267 14.2 101310 39
2011-06-17 07:35:45 51°13.974 2°55.559 3.1 38 14.2 101310 39
2011-06-17 07:35:50 51°13.98 2°55.551 3.4 28 14.2 101310 39
2011-06-17 07:35:56 51°13.989 2°55.542 3.3 34 14.2 101310 39
2011-06-17 07:36:02 51°13.998 2°55.533 2.9 28 14.2 101310 38
2011-06-17 07:36:07 51°14.005 2°55.526 0.8 34 14.2 101310 38
2011-06-17 07:36:13 51°14.015 2°55.517 4 25 14.2 101320 39
2011-06-17 07:36:17 51°14.022 2°55.511 2.6 31 14.2 101320 39
2011-06-17 07:36:22 51°14.03 2°55.504 2.5 25 14.2 101320 36
2011-06-17 07:36:27 51°14.039 2°55.497 2.9 39 14.2 101320 36
2011-06-17 07:36:32 51°14.048 2°55.49 2.5 26 14.2 101320 39
2011-06-17 07:36:37 51°14.057 2°55.483 3 31 14.2 101320 39
2011-06-17 07:36:44 51°14.07 2°55.473 2.3 22 14.2 101320 38
2011-06-17 07:36:49 51°14.081 2°55.465 1.2 32 14.2 101320 38
2011-06-17 07:36:54 51°14.091 2°55.458 2.2 28 14.2 101310 37
2011-06-17 07:36:58 51°14.1 2°55.452 0.7 33 14.2 101310 37
2011-06-17 07:37:03 51°14.111 2°55.444 0.2 22 14.2 101310 37
2011-06-17 07:37:08 51°14.122 2°55.436 0.1 37 14.2 101310 37
2011-06-17 07:37:14 51°14.135 2°55.425 0.1 25 14.3 101310 37
2011-06-17 07:37:18 51°14.144 2°55.418 1.2 262 14.3 101310 37
2011-06-17 07:37:23 51°14.156 2°55.409 0.6 265 14.3 101310 38
2011-06-17 07:37:28 51°14.167 2°55.4 4.2 250 14.3 101310 38
2011-06-17 07:37:34 51°14.181 2°55.388 4.6 28 14.3 101310 37
2011-06-17 07:37:38 51°14.191 2°55.381 3 256 14.3 101310 37
2011-06-17 07:37:43 51°14.203 2°55.372 3.3 254 14.3 101310 37
2011-06-17 07:37:48 51°14.215 2°55.362 1.8 261 14.3 101310 37
2011-06-17 07:37:53 51°14.228 2°55.353 1.8 263 14.3 101310 38
2011-06-17 07:37:58 51°14.24 2°55.343 0.3 250 14.3 101310 38
2011-06-17 07:38:03 51°14.253 2°55.334 0.2 23 14.3 101320 39
2011-06-17 07:38:08 51°14.265 2°55.324 0.4 270 14.3 101320 39
2011-06-17 07:38:13 51°14.278 2°55.314 0.4 256 14.4 101320 38
2011-06-17 07:38:18 51°14.29 2°55.303 0.6 246 14.4 101320 38
2011-06-17 07:38:23 51°14.303 2°55.293 1.2 249 14.4 101320 38
2011-06-17 07:38:28 51°14.315 2°55.28 2.3 36 14.4 101320 38
2011-06-17 07:38:33 51°14.328 2°55.268 2.8 249 14.4 101320 39
2011-06-17 07:38:38 51°14.34 2°55.255 3.6 247 14.4 101320 39
2011-06-17 07:38:42 51°14.351 2°55.245 4.7 27 14.4 101320 38
2011-06-17 07:38:48 51°14.366 2°55.229 4.7 236 14.4 101320 38
2011-06-17 07:38:53 51°14.378 2°55.214 3.3 25 14.5 101320 39
2011-06-17 07:38:59 51°14.394 2°55.197 3.9 37 14.5 101320 39
2011-06-17 07:39:03 51°14.404 2°55.185 6 23 14.5 101310 38
2011-06-17 07:39:09 51°14.42 2°55.168 7.1 236 14.5 101310 38
2011-06-17 07:39:13 51°14.431 2°55.156 6.7 28 14.5 101310 38
2011-06-17 07:39:18 51°14.444 2°55.142 8.1 33 14.5 101310 38
2011-06-17 07:39:23 51°14.458 2°55.127 7.6 26 14.5 101310 39
2011-06-17 07:39:28 51°14.472 2°55.114 6.9 242 14.5 101310 39
2011-06-17 07:39:33 51°14.486 2°55.101 7.4 22 14.5 101310 39
2011-06-17 07:39:38 51°14.501 2°55.087 7.3 246 14.5 101310 39
2011-06-17 07:39:43 51°14.516 2°55.074 7.5 245 14.5 101300 38
2011-06-17 07:39:47 51°14.528 2°55.062 6.5 242 14.5 101300 38
2011-06-17 07:39:52 51°14.543 2°55.048 7 22 14.5 101290 38
2011-06-17 07:39:57 51°14.558 2°55.032 8.8 242 14.5 101290 38
2011-06-17 07:40:02 51°14.572 2°55.016 6.9 22 14.5 101300 38
2011-06-17 07:40:07 51°14.587 2°54.998 8.2 245 14.5 101300 38
2011-06-17 07:40:11 51°14.599 2°54.986 6.9 23 14.5 101300 37
2011-06-17 07:40:16 51°14.615 2°54.972 7.3 247 14.5 101300 37
2011-06-17 07:40:22 51°14.634 2°54.956 7.4 246 14.4 101300 37
2011-06-17 07:40:27 51°14.649 2°54.944 6.2 247 14.4 101300 37
2011-06-17 07:40:31 51°14.662 2°54.933 6.6 247 14.4 101300 37
2011-06-17 07:40:36 51°14.678 2°54.922 6.2 253 14.4 101300 37
2011-06-17 07:40:41 51°14.695 2°54.911 6.4 254 14.4 101300 38
2011-06-17 07:40:46 51°14.711 2°54.9 6 250 14.4 101300 38
2011-06-17 07:40:51 51°14.727 2°54.891 5.1 251 14.5 101300 37
2011-06-17 07:40:55 51°14.74 2°54.883 6 259 14.5 101300 37
2011-06-17 07:41:00 51°14.757 2°54.873 5.8 256 14.5 101310 37
2011-06-17 07:41:05 51°14.773 2°54.864 4 257 14.5 101310 37
2011-06-17 07:41:10 51°14.789 2°54.856 4.7 260 14.5 101300 37
2011-06-17 07:41:15 51°14.806 2°54.848 2 263 14.5 101300 37
2011-06-17 07:41:20 51°14.823 2°54.842 2 264 14.5 101310 38
2011-06-17 07:41:25 51°14.839 2°54.835 2.6 253 14.5 101310 38
2011-06-17 07:41:30 51°14.856 2°54.827 3.3 248 14.5 101310 38
2011-06-17 07:41:35 51°14.872 2°54.819 4.8 253 14.5 101310 38
2011-06-17 07:41:40 51°14.888 2°54.811 3.8 251 14.5 101310 37
2011-06-17 07:41:44 51°14.901 2°54.803 5.3 254 14.5 101310 37
2011-06-17 07:41:50 51°14.921 2°54.791 6 254 14.5 101310 37
2011-06-17 07:41:55 51°14.936 2°54.78 4.8 254 14.5 101310 37
2011-06-17 07:42:00 51°14.952 2°54.767 4.8 252 14.5 101310 39
2011-06-17 07:42:04 51°14.964 2°54.757 4.5 249 14.5 101310 39
2011-06-17 07:42:09 51°14.979 2°54.744 4.5 251 14.6 101310 39
2011-06-17 07:42:14 51°14.994 2°54.73 5.6 258 14.6 101310 39
2011-06-17 07:42:20 51°15.012 2°54.714 4.9 247 14.5 101300 38
2011-06-17 07:42:24 51°15.024 2°54.702 4.4 248 14.5 101300 38
2011-06-17 07:42:28 51°15.036 2°54.692 4.2 258 14.6 101310 38
2011-06-17 07:42:35 51°15.057 2°54.672 4.6 254 14.6 101310 38
2011-06-17 07:42:40 51°15.071 2°54.658 5.2 254 14.6 101310 38
2011-06-17 07:42:45 51°15.086 2°54.644 4.4 252 14.6 101310 38
2011-06-17 07:42:49 51°15.097 2°54.632 5.1 254 14.6 101300 37
2011-06-17 07:42:54 51°15.112 2°54.618 5.7 251 14.6 101300 37
2011-06-17 07:42:59 51°15.126 2°54.604 5.9 255 14.6 101310 38
2011-06-17 07:43:05 51°15.143 2°54.588 4.6 259 14.6 101310 38
2011-06-17 07:43:09 51°15.155 2°54.576 4.6 255 14.6 101310 38
2011-06-17 07:43:14 51°15.169 2°54.563 5.4 257 14.6 101310 38
2011-06-17 07:43:20 51°15.187 2°54.547 5.2 256 14.6 101300 39
2011-06-17 07:43:26 51°15.204 2°54.53 4.6 256 14.6 101300 39
2011-06-17 07:43:30 51°15.216 2°54.52 5.2 257 14.7 101310 38
2011-06-17 07:43:35 51°15.231 2°54.506 2.4 261 14.7 101310 38
2011-06-17 07:43:40 51°15.246 2°54.492 2.9 257 14.6 101300 38
2011-06-17 07:43:45 51°15.261 2°54.479 3.7 253 14.6 101300 38
2011-06-17 07:43:50 51°15.276 2°54.465 3 252 14.7 101310 39
2011-06-17 07:43:55 51°15.291 2°54.451 3.7 257 14.7 101310 39
2011-06-17 07:43:59 51°15.303 2°54.44 3.4 253 14.7 101310 38
2011-06-17 07:44:05 51°15.321 2°54.423 2.9 251 14.7 101310 38
2011-06-17 07:44:10 51°15.336 2°54.409 2.5 248 14.7 101310 39
2011-06-17 07:44:15 51°15.351 2°54.395 2.6 239 14.7 101310 39
2011-06-17 07:44:20 51°15.366 2°54.381 3.7 25 14.7 101310 37
2011-06-17 07:44:25 51°15.381 2°54.367 3.7 237 14.7 101310 37
2011-06-17 07:44:30 51°15.397 2°54.354 3.7 28 14.7 101310 38
2011-06-17 07:44:34 51°15.409 2°54.343 4.9 243 14.7 101310 38
2011-06-17 07:44:40 51°15.427 2°54.326 5.4 25 14.7 101310 38
2011-06-17 07:44:45 51°15.443 2°54.312 5.6 246 14.7 101310 38
2011-06-17 07:44:50 51°15.458 2°54.296 6.1 22 14.7 101310 39
2011-06-17 07:44:54 51°15.469 2°54.283 6.2 245 14.7 101310 39
2011-06-17 07:44:59 51°15.484 2°54.267 6.3 25 14.7 101300 39
2011-06-17 07:45:05 51°15.501 2°54.246 6.5 246 14.7 101300 39
2011-06-17 07:45:10 51°15.516 2°54.228 6.4 246 14.7 101300 38
2011-06-17 07:45:14 51°15.527 2°54.214 8 246 14.7 101300 38
2011-06-17 07:45:19 51°15.541 2°54.195 7.6 247 14.7 101300 38
2011-06-17 07:45:24 51°15.555 2°54.177 7.3 249 14.7 101300 38
2011-06-17 07:45:30 51°15.571 2°54.154 8.4 249 14.7 101300 39
2011-06-17 07:45:35 51°15.585 2°54.135 6.4 248 14.7 101300 39
2011-06-17 07:45:39 51°15.596 2°54.12 7.9 22 14.7 101300 39
2011-06-17 07:45:45 51°15.613 2°54.097 6.2 248 14.7 101300 39
2011-06-17 07:45:50 51°15.627 2°54.078 8.4 249 14.7 101300 38
2011-06-17 07:45:55 51°15.641 2°54.06 7 250 14.7 101300 38
2011-06-17 07:45:59 51°15.652 2°54.046 7.2 250 14.7 101290 39
2011-06-17 07:46:05 51°15.67 2°54.025 5.4 252 14.7 101290 39
2011-06-17 07:46:09 51°15.681 2°54.011 5.4 251 14.7 101300 39
2011-06-17 07:46:15 51°15.699 2°53.992 4.8 250 14.7 101300 39
2011-06-17 07:46:19 51°15.711 2°53.979 5.9 251 14.7 101300 38
2011-06-17 07:46:24 51°15.726 2°53.963 4.8 251 14.7 101300 38
2011-06-17 07:46:29 51°15.742 2°53.948 5.1 247 14.7 101300 39
2011-06-17 07:46:34 51°15.757 2°53.933 5.1 246 14.7 101300 39
2011-06-17 07:46:40 51°15.775 2°53.915 5.5 22 14.6 101300 38
2011-06-17 07:46:45 51°15.79 2°53.9 4.7 245 14.6 101300 38
2011-06-17 07:46:50 51°15.805 2°53.884 5.4 250 14.6 101310 38
2011-06-17 07:46:55 51°15.821 2°53.869 5.2 249 14.6 101310 38
2011-06-17 07:47:00 51°15.836 2°53.853 4.7 247 14.6 101300 37
2011-06-17 07:47:04 51°15.847 2°53.84 6.8 247 14.6 101300 37
2011-06-17 07:47:08 51°15.859 2°53.827 7.7 251 14.6 101300 38
2011-06-17 07:47:14 51°15.876 2°53.807 7.8 251 14.6 101300 38
2011-06-17 07:47:20 51°15.893 2°53.785 7.1 250 14.6 101310 38
2011-06-17 07:47:24 51°15.905 2°53.771 8.3 251 14.6 101310 38
2011-06-17 07:47:29 51°15.919 2°53.753 6.3 247 14.6 101300 38
2011-06-17 07:47:35 51°15.935 2°53.73 6.2 249 14.6 101300 38
2011-06-17 07:47:41 51°15.952 2°53.708 6.4 251 14.6 101290 38
2011-06-17 07:47:45 51°15.963 2°53.694 6.7 251 14.6 101290 38
2011-06-17 07:47:50 51°15.977 2°53.675 6 23 14.6 101300 38
2011-06-17 07:47:55 51°15.991 2°53.657 6.6 249 14.6 101300 38
2011-06-17 07:48:00 51°16.005 2°53.638 6.1 249 14.6 101300 38
2011-06-17 07:48:05 51°16.019 2°53.62 6.3 243 14.6 101300 38
2011-06-17 07:48:09 51°16.03 2°53.606 6.4 20 14.6 101300 38
2011-06-17 07:48:14 51°16.044 2°53.589 7 250 14.6 101300 38
2011-06-17 07:48:19 51°16.058 2°53.571 5.8 248 14.6 101300 38
2011-06-17 07:48:25 51°16.076 2°53.551 6.2 247 14.6 101300 38
2011-06-17 07:48:29 51°16.088 2°53.538 6.2 246 14.6 101300 38
2011-06-17 07:48:35 51°16.105 2°53.519 6 243 14.6 101300 38
2011-06-17 07:48:40 51°16.12 2°53.504 5.6 246 14.6 101300 38
2011-06-17 07:48:45 51°16.135 2°53.487 5.3 248 14.6 101300 38
2011-06-17 07:48:50 51°16.15 2°53.472 5.8 247 14.6 101300 38
2011-06-17 07:48:55 51°16.165 2°53.455 6 248 14.6 101300 38
2011-06-17 07:49:00 51°16.18 2°53.439 6.6 22 14.6 101300 39
2011-06-17 07:49:05 51°16.194 2°53.423 6.2 247 14.6 101300 39
2011-06-17 07:49:10 51°16.209 2°53.407 5.5 21 14.6 101290 38
2011-06-17 07:49:15 51°16.224 2°53.391 6 248 14.6 101290 38
2011-06-17 07:49:20 51°16.238 2°53.374 5.5 251 14.6 101300 38
2011-06-17 07:49:25 51°16.252 2°53.356 6 244 14.6 101300 38
2011-06-17 07:49:30 51°16.266 2°53.339 5.5 27 14.6 101290 38
2011-06-17 07:49:34 51°16.278 2°53.324 5.8 245 14.6 101290 38
2011-06-17 07:49:40 51°16.294 2°53.302 5.6 21 14.6 101290 37
2011-06-17 07:49:45 51°16.308 2°53.284 6.1 246 14.6 101290 37
2011-06-17 07:49:49 51°16.319 2°53.269 7.1 253 14.6 101290 38
2011-06-17 07:49:54 51°16.333 2°53.25 6.1 250 14.6 101290 38
2011-06-17 07:50:00 51°16.349 2°53.228 5.8 20 14.6 101300 38
2011-06-17 07:50:05 51°16.363 2°53.21 4.7 247 14.6 101300 38
2011-06-17 07:50:10 51°16.377 2°53.193 6 251 14.6 101290 39
2011-06-17 07:50:15 51°16.392 2°53.177 6.2 251 14.6 101290 39
2011-06-17 07:50:19 51°16.404 2°53.164 6.1 254 14.6 101290 38
2011-06-17 07:50:25 51°16.422 2°53.146 4.3 249 14.6 101290 38
2011-06-17 07:50:30 51°16.437 2°53.132 4.6 251 14.6 101290 39
2011-06-17 07:50:35 51°16.452 2°53.118 4.3 247 14.6 101290 39
2011-06-17 07:50:39 51°16.465 2°53.108 4.8 249 14.6 101300 38
2011-06-17 07:50:44 51°16.48 2°53.094 3.5 243 14.6 101300 38
2011-06-17 07:50:50 51°16.499 2°53.079 4.2 246 14.6 101300 39
2011-06-17 07:50:55 51°16.515 2°53.067 4 250 14.6 101300 39
2011-06-17 07:50:59 51°16.527 2°53.057 3.7 250 14.6 101290 39
2011-06-17 07:51:04 51°16.543 2°53.044 3.7 251 14.6 101290 39
2011-06-17 07:51:09 51°16.559 2°53.031 3.9 20 14.6 101300 38
2011-06-17 07:51:15 51°16.577 2°53.016 4.6 252 14.6 101300 38
2011-06-17 07:51:19 51°16.589 2°53.005 4.2 254 14.6 101300 38
2011-06-17 07:51:24 51°16.605 2°52.991 3.1 247 14.6 101300 38
2011-06-17 07:51:30 51°16.623 2°52.974 3.6 256 14.6 101290 38
2011-06-17 07:51:35 51°16.638 2°52.96 3.5 248 14.6 101290 38
2011-06-17 07:51:39 51°16.65 2°52.949 4.6 253 14.6 101300 39
2011-06-17 07:51:44 51°16.665 2°52.934 6 252 14.6 101300 39
2011-06-17 07:51:49 51°16.68 2°52.918 4.5 251 14.6 101300 38
2011-06-17 07:51:54 51°16.694 2°52.904 4.4 250 14.6 101300 38
2011-06-17 07:52:00 51°16.712 2°52.886 4.3 20 14.6 101290 38
2011-06-17 07:52:05 51°16.727 2°52.871 5.3 247 14.6 101290 38
2011-06-17 07:52:10 51°16.741 2°52.856 5.2 249 14.6 101290 38
2011-06-17 07:52:15 51°16.755 2°52.841 6.9 249 14.6 101290 38
2011-06-17 07:52:20 51°16.77 2°52.826 6.2 249 14.7 101290 38
2011-06-17 07:52:24 51°16.781 2°52.814 7.2 248 14.7 101290 38
2011-06-17 07:52:30 51°16.799 2°52.797 6.6 247 14.7 101290 39
2011-06-17 07:52:35 51°16.813 2°52.782 6.7 252 14.7 101290 39
2011-06-17 07:52:40 51°16.827 2°52.767 6.7 247 14.7 101300 39
2011-06-17 07:52:44 51°16.838 2°52.755 5 245 14.7 101300 39
2011-06-17 07:52:50 51°16.855 2°52.738 5.5 21 14.7 101290 39
2011-06-17 07:52:55 51°16.869 2°52.723 5.9 31 14.7 101290 39
2011-06-17 07:53:00 51°16.883 2°52.708 6.3 25 14.7 101300 38
2011-06-17 07:53:04 51°16.895 2°52.696 5.9 246 14.7 101300 38
2011-06-17 07:53:10 51°16.912 2°52.678 6.5 22 14.7 101290 39
2011-06-17 07:53:15 51°16.926 2°52.663 5.7 244 14.7 101290 39
2011-06-17 07:53:20 51°16.94 2°52.649 5.8 22 14.7 101300 38
2011-06-17 07:53:25 51°16.955 2°52.634 5.9 246 14.7 101300 38
2011-06-17 07:53:29 51°16.966 2°52.622 6 244 14.7 101290 38
2011-06-17 07:53:35 51°16.983 2°52.604 6.5 243 14.7 101290 38
2011-06-17 07:53:40 51°16.998 2°52.59 6.3 22 14.7 101290 38
2011-06-17 07:53:45 51°17.013 2°52.578 5.8 245 14.7 101290 38
2011-06-17 07:53:49 51°17.025 2°52.568 5.2 23 14.7 101300 39
2011-06-17 07:53:55 51°17.044 2°52.553 5.3 243 14.7 101300 39
2011-06-17 07:54:00 51°17.059 2°52.543 5.2 20 14.7 101300 38
2011-06-17 07:54:05 51°17.074 2°52.532 5.3 243 14.7 101300 38
2011-06-17 07:54:10 51°17.09 2°52.522 6.5 245 14.7 101290 39
2011-06-17 07:54:15 51°17.106 2°52.511 5.9 249 14.7 101290 39
2011-06-17 07:54:20 51°17.121 2°52.501 5.6 21 14.7 101290 39
2011-06-17 07:54:25 51°17.137 2°52.491 5.9 248 14.7 101290 39
2011-06-17 07:54:30 51°17.152 2°52.481 5.3 249 14.7 101300 38
2011-06-17 07:54:35 51°17.168 2°52.469 5.2 244 14.7 101300 38
2011-06-17 07:54:40 51°17.183 2°52.457 5.8 22 14.7 101290 39
2011-06-17 07:54:45 51°17.199 2°52.445 5.8 249 14.7 101290 39
2011-06-17 07:54:50 51°17.214 2°52.433 5.5 248 14.7 101300 38
2011-06-17 07:54:55 51°17.229 2°52.42 5.2 245 14.7 101300 38
2011-06-17 07:55:00 51°17.244 2°52.407 5.8 28 14.7 101290 37
2011-06-17 07:55:05 51°17.259 2°52.393 5.4 245 14.7 101290 37
2011-06-17 07:55:09 51°17.271 2°52.382 6.3 23 14.7 101290 39
2011-06-17 07:55:15 51°17.288 2°52.365 5.4 241 14.7 101290 39
2011-06-17 07:55:20 51°17.303 2°52.351 6.3 246 14.7 101300 38
2011-06-17 07:55:25 51°17.317 2°52.336 6 244 14.7 101300 38
2011-06-17 07:55:29 51°17.329 2°52.325 4.9 20 14.7 101300 39
2011-06-17 07:55:35 51°17.347 2°52.308 6 243 14.7 101300 39
2011-06-17 07:55:40 51°17.361 2°52.294 5.4 19 14.7 101290 39
2011-06-17 07:55:45 51°17.376 2°52.28 6.1 245 14.7 101290 39
2011-06-17 07:55:49 51°17.388 2°52.269 6.5 19 14.7 101290 38
2011-06-17 07:55:55 51°17.406 2°52.253 5 247 14.7 101290 38
2011-06-17 07:56:00 51°17.421 2°52.239 5.1 21 14.7 101300 38
2011-06-17 07:56:05 51°17.436 2°52.225 4.1 248 14.7 101300 38
2011-06-17 07:56:09 51°17.448 2°52.214 4.4 19 14.6 101300 39
2011-06-17 07:56:15 51°17.466 2°52.198 3.7 247 14.6 101300 39
2011-06-17 07:56:20 51°17.481 2°52.185 4.1 248 14.6 101300 38
2011-06-17 07:56:25 51°17.496 2°52.172 4.1 246 14.6 101300 38
2011-06-17 07:56:29 51°17.508 2°52.161 4.1 248 14.6 101300 39
2011-06-17 07:56:35 51°17.526 2°52.146 2.5 245 14.6 101300 39
2011-06-17 07:56:40 51°17.541 2°52.134 3.6 24 14.6 101300 38
2011-06-17 07:56:45 51°17.556 2°52.123 2.8 249 14.6 101300 38
2011-06-17 07:56:49 51°17.569 2°52.114 3.2 20 14.6 101300 38
2011-06-17 07:56:55 51°17.587 2°52.1 3.2 242 14.6 101300 38
2011-06-17 07:57:00 51°17.603 2°52.089 3.2 25 14.5 101300 38
2011-06-17 07:57:05 51°17.618 2°52.078 3.5 240 14.5 101300 38
2011-06-17 07:57:10 51°17.634 2°52.067 3.3 20 14.6 101300 38
2011-06-17 07:57:15 51°17.649 2°52.055 3.4 240 14.6 101300 38
2011-06-17 07:57:20 51°17.664 2°52.043 3.1 22 14.6 101300 39
2011-06-17 07:57:25 51°17.679 2°52.03 3.2 240 14.6 101300 39
2011-06-17 07:57:30 51°17.694 2°52.017 3.1 26 14.6 101300 39
2011-06-17 07:57:35 51°17.709 2°52.004 4 241 14.6 101300 39
2011-06-17 07:57:40 51°17.724 2°51.992 4.5 26 14.6 101300 37
2011-06-17 07:57:45 51°17.739 2°51.979 3.9 239 14.6 101300 37
2011-06-17 07:57:49 51°17.751 2°51.97 4.6 26 14.6 101300 38
2011-06-17 07:57:55 51°17.769 2°51.954 4.7 242 14.6 101300 38
2011-06-17 07:58:00 51°17.783 2°51.941 4 242 14.6 101300 39
2011-06-17 07:58:05 51°17.798 2°51.928 3.6 239 14.6 101300 39
2011-06-17 07:58:09 51°17.81 2°51.918 3.8 23 14.6 101300 39
2011-06-17 07:58:15 51°17.827 2°51.902 4.2 243 14.6 101300 39
2011-06-17 07:58:20 51°17.842 2°51.889 4.3 21 14.6 101290 39
2011-06-17 07:58:25 51°17.857 2°51.876 4 245 14.6 101290 39
2011-06-17 07:58:29 51°17.869 2°51.867 3.7 20 14.6 101290 39
2011-06-17 07:58:35 51°17.887 2°51.852 3.7 246 14.6 101290 39
2011-06-17 07:58:40 51°17.903 2°51.84 4 249 14.6 101300 38
2011-06-17 07:58:45 51°17.918 2°51.829 5.5 248 14.6 101300 38
2011-06-17 07:58:49 51°17.931 2°51.821 5.2 247 14.6 101290 40
2011-06-17 07:58:55 51°17.949 2°51.808 5.3 252 14.6 101290 40
2011-06-17 07:59:00 51°17.965 2°51.797 5.8 251 14.6 101300 40
2011-06-17 07:59:05 51°17.98 2°51.787 5.3 250 14.6 101300 40
2011-06-17 07:59:09 51°17.993 2°51.779 5.1 255 14.6 101300 39
2011-06-17 07:59:15 51°18.012 2°51.766 4.7 247 14.6 101300 39
2011-06-17 07:59:20 51°18.027 2°51.755 4.1 246 14.6 101290 39
2011-06-17 07:59:25 51°18.043 2°51.743 4 245 14.6 101290 39
2011-06-17 07:59:30 51°18.058 2°51.731 4.9 243 14.5 101290 39
2011-06-17 07:59:35 51°18.073 2°51.719 4.5 252 14.5 101290 39
2011-06-17 07:59:40 51°18.089 2°51.707 5.1 250 14.5 101290 40
2011-06-17 07:59:45 51°18.104 2°51.695 4.6 251 14.5 101290 40
2011-06-17 07:59:50 51°18.119 2°51.682 5.1 22 14.6 101290 39
2011-06-17 07:59:55 51°18.135 2°51.67 4.5 252 14.6 101290 39
2011-06-17 08:00:00 51°18.15 2°51.657 4.5 22 14.6 101280 39
2011-06-17 08:00:05 51°18.165 2°51.645 5.4 244 14.6 101280 39
2011-06-17 08:00:09 51°18.177 2°51.634 5.4 24 14.6 101290 39
2011-06-17 08:00:15 51°18.195 2°51.618 4.3 246 14.6 101290 39
2011-06-17 08:00:20 51°18.21 2°51.605 3.9 27 14.5 101290 38
2011-06-17 08:00:25 51°18.226 2°51.592 4.2 242 14.5 101290 38
2011-06-17 08:00:29 51°18.238 2°51.582 3.8 246 14.6 101290 39
2011-06-17 08:00:35 51°18.256 2°51.567 3.3 244 14.6 101290 39
2011-06-17 08:00:40 51°18.272 2°51.554 3.3 22 14.6 101290 38
2011-06-17 08:00:45 51°18.287 2°51.541 4.4 247 14.6 101290 38
2011-06-17 08:00:49 51°18.3 2°51.531 5 19 14.5 101290 38
2011-06-17 08:00:55 51°18.318 2°51.517 4.5 245 14.5 101290 38
2011-06-17 08:01:00 51°18.334 2°51.505 4.8 23 14.5 101290 38
2011-06-17 08:01:05 51°18.349 2°51.493 5.8 243 14.5 101290 38
2011-06-17 08:01:09 51°18.362 2°51.484 3.8 23 14.5 101280 38
2011-06-17 08:01:15 51°18.381 2°51.471 4.3 244 14.5 101280 38
2011-06-17 08:01:20 51°18.396 2°51.46 4.1 23 14.6 101270 39
2011-06-17 08:01:25 51°18.412 2°51.449 6.7 249 14.6 101270 39
2011-06-17 08:01:29 51°18.424 2°51.44 5 245 14.5 101280 40
2011-06-17 08:01:35 51°18.443 2°51.426 5.3 250 14.5 101280 40
2011-06-17 08:01:40 51°18.459 2°51.416 4.3 21 14.6 101280 40
2011-06-17 08:01:45 51°18.474 2°51.404 4.8 252 14.6 101280 40
2011-06-17 08:01:50 51°18.49 2°51.393 5 252 14.5 101280 39
2011-06-17 08:01:55 51°18.506 2°51.382 5 251 14.5 101280 39
2011-06-17 08:02:00 51°18.521 2°51.371 4.4 247 14.5 101280 39
2011-06-17 08:02:05 51°18.537 2°51.36 5.1 248 14.5 101280 39
2011-06-17 08:02:10 51°18.553 2°51.348 5.1 253 14.5 101280 39
2011-06-17 08:02:15 51°18.568 2°51.337 5.7 248 14.5 101280 39
2011-06-17 08:02:20 51°18.584 2°51.325 5.9 23 14.5 101280 38
2011-06-17 08:02:25 51°18.599 2°51.314 5.3 249 14.5 101280 38
2011-06-17 08:02:29 51°18.612 2°51.304 5.4 254 14.5 101290 39
2011-06-17 08:02:35 51°18.63 2°51.29 4.7 248 14.5 101290 39
2011-06-17 08:02:40 51°18.646 2°51.278 4.9 243 14.5 101290 39
2011-06-17 08:02:45 51°18.661 2°51.266 4.7 241 14.5 101290 39
2011-06-17 08:02:49 51°18.674 2°51.256 4.8 244 14.5 101280 39
2011-06-17 08:02:55 51°18.692 2°51.241 4.7 249 14.5 101280 39
2011-06-17 08:03:00 51°18.708 2°51.229 4.6 250 14.5 101280 36
2011-06-17 08:03:05 51°18.723 2°51.216 6.1 246 14.5 101280 36
2011-06-17 08:03:09 51°18.735 2°51.206 5.5 246 14.5 101280 38
2011-06-17 08:03:15 51°18.753 2°51.191 4.9 248 14.5 101280 38
2011-06-17 08:03:20 51°18.768 2°51.179 5 249 14.6 101280 39
2011-06-17 08:03:25 51°18.784 2°51.166 4.2 245 14.6 101280 39
2011-06-17 08:03:30 51°18.799 2°51.153 5.1 21 14.6 101280 38
2011-06-17 08:03:35 51°18.814 2°51.141 5 244 14.6 101280 38
2011-06-17 08:03:40 51°18.83 2°51.128 5.5 244 14.6 101280 39
2011-06-17 08:03:45 51°18.845 2°51.115 4.8 247 14.6 101280 39
2011-06-17 08:03:50 51°18.861 2°51.103 4.9 246 14.6 101280 39
2011-06-17 08:03:55 51°18.876 2°51.09 5.8 246 14.6 101280 39
2011-06-17 08:04:00 51°18.891 2°51.078 4.9 20 14.5 101280 38
2011-06-17 08:04:05 51°18.906 2°51.065 5.3 249 14.5 101280 38
2011-06-17 08:04:10 51°18.921 2°51.051 5 248 14.5 101280 39
2011-06-17 08:04:15 51°18.937 2°51.038 5.1 248 14.5 101280 39
2011-06-17 08:04:20 51°18.952 2°51.024 5.6 247 14.5 101280 38
2011-06-17 08:04:25 51°18.967 2°51.011 4.6 241 14.5 101280 38
2011-06-17 08:04:30 51°18.982 2°50.998 5 247 14.5 101280 38
2011-06-17 08:04:35 51°18.997 2°50.984 4.7 249 14.5 101280 38
2011-06-17 08:04:40 51°19.012 2°50.97 4 249 14.5 101270 39
2011-06-17 08:04:45 51°19.027 2°50.956 4.8 253 14.5 101270 39
2011-06-17 08:04:49 51°19.039 2°50.946 4.2 254 14.5 101280 39
2011-06-17 08:04:55 51°19.058 2°50.93 3.9 249 14.5 101280 39
2011-06-17 08:05:00 51°19.073 2°50.917 4 21 14.5 101280 38
2011-06-17 08:05:05 51°19.089 2°50.905 3.4 251 14.5 101280 38
2011-06-17 08:05:10 51°19.104 2°50.892 4.3 20 14.5 101280 38
2011-06-17 08:05:15 51°19.119 2°50.88 3.4 251 14.5 101280 38
2011-06-17 08:05:20 51°19.134 2°50.868 4.1 256 14.5 101290 39
2011-06-17 08:05:25 51°19.15 2°50.856 3.9 253 14.5 101290 39
2011-06-17 08:05:29 51°19.162 2°50.846 3.4 251 14.5 101280 38
2011-06-17 08:05:35 51°19.181 2°50.832 3.1 250 14.5 101280 38
2011-06-17 08:05:40 51°19.196 2°50.82 3.4 254 14.5 101280 38
2011-06-17 08:05:45 51°19.212 2°50.808 4.9 252 14.5 101280 38
2011-06-17 08:05:50 51°19.227 2°50.796 4.3 252 14.5 101280 38
2011-06-17 08:05:55 51°19.243 2°50.783 3.5 249 14.5 101280 38
2011-06-17 08:06:00 51°19.258 2°50.77 3.5 253 14.5 101290 39
2011-06-17 08:06:05 51°19.273 2°50.757 3.8 250 14.5 101290 39
2011-06-17 08:06:10 51°19.289 2°50.744 3.7 253 14.5 101280 39
2011-06-17 08:06:15 51°19.304 2°50.731 4.2 248 14.5 101280 39
2011-06-17 08:06:20 51°19.319 2°50.717 4.7 22 14.6 101280 39
2011-06-17 08:06:25 51°19.334 2°50.703 5.6 244 14.6 101280 39
2011-06-17 08:06:30 51°19.35 2°50.69 5.2 20 14.5 101280 38
2011-06-17 08:06:35 51°19.365 2°50.677 4.7 246 14.5 101280 38
2011-06-17 08:06:40 51°19.38 2°50.664 5.6 21 14.6 101280 39
2011-06-17 08:06:45 51°19.395 2°50.652 5.2 248 14.6 101280 39
2011-06-17 08:06:50 51°19.411 2°50.639 5.4 246 14.6 101280 38
2011-06-17 08:06:55 51°19.426 2°50.626 6 246 14.6 101280 38
2011-06-17 08:07:00 51°19.441 2°50.613 5.8 244 14.6 101280 38
2011-06-17 08:07:05 51°19.457 2°50.601 5.9 245 14.6 101280 38
2011-06-17 08:07:09 51°19.469 2°50.591 6 25 14.6 101280 38
2011-06-17 08:07:15 51°19.488 2°50.575 6.2 246 14.6 101280 38
2011-06-17 08:07:20 51°19.503 2°50.563 6.2 249 14.6 101280 38
2011-06-17 08:07:25 51°19.519 2°50.55 5.4 246 14.6 101280 38
2011-06-17 08:07:29 51°19.531 2°50.541 6.1 245 14.6 101280 39
2011-06-17 08:07:35 51°19.55 2°50.526 5.3 247 14.6 101280 39
2011-06-17 08:07:40 51°19.565 2°50.514 5.1 244 14.6 101280 39
2011-06-17 08:07:45 51°19.581 2°50.502 4.6 247 14.6 101280 39
2011-06-17 08:07:50 51°19.596 2°50.491 4.9 249 14.6 101280 39
2011-06-17 08:07:55 51°19.612 2°50.479 5.1 252 14.6 101280 39
2011-06-17 08:08:00 51°19.628 2°50.467 5.1 250 14.6 101280 38
2011-06-17 08:08:05 51°19.644 2°50.454 4.1 249 14.6 101280 38
2011-06-17 08:08:09 51°19.656 2°50.444 4.3 250 14.6 101290 39
2011-06-17 08:08:15 51°19.675 2°50.429 5.1 243 14.6 101290 39
2011-06-17 08:08:20 51°19.69 2°50.415 5.9 245 14.6 101280 37
2011-06-17 08:08:25 51°19.706 2°50.402 5.6 242 14.6 101280 37
2011-06-17 08:08:29 51°19.718 2°50.392 5.2 21 14.6 101270 39
2011-06-17 08:08:35 51°19.737 2°50.376 5.5 238 14.6 101270 39
2011-06-17 08:08:40 51°19.752 2°50.363 6.2 26 14.6 101280 38
2011-06-17 08:08:45 51°19.768 2°50.35 5.9 240 14.6 101280 38
2011-06-17 08:08:50 51°19.783 2°50.336 7.1 20 14.6 101290 39
2011-06-17 08:08:55 51°19.799 2°50.322 5.6 243 14.6 101290 39
2011-06-17 08:09:00 51°19.814 2°50.309 6.3 24 14.6 101270 38
2011-06-17 08:09:05 51°19.829 2°50.295 6.3 245 14.6 101270 38
2011-06-17 08:09:09 51°19.842 2°50.284 7 20 14.6 101280 39
2011-06-17 08:09:15 51°19.86 2°50.268 5.5 243 14.6 101280 39
2011-06-17 08:09:20 51°19.876 2°50.255 5.8 20 14.5 101270 39
2011-06-17 08:09:25 51°19.891 2°50.241 5.4 247 14.5 101270 39
2011-06-17 08:09:29 51°19.904 2°50.231 6.2 251 14.5 101270 38
2011-06-17 08:09:35 51°19.922 2°50.215 6 253 14.5 101270 38
2011-06-17 08:09:40 51°19.938 2°50.202 7 253 14.5 101280 39
2011-06-17 08:09:45 51°19.953 2°50.189 4.9 255 14.5 101280 39
2011-06-17 08:09:50 51°19.969 2°50.177 4.9 251 14.5 101270 38
2011-06-17 08:09:55 51°19.984 2°50.164 5.2 252 14.5 101270 38
2011-06-17 08:10:00 51°20 2°50.152 5.2 253 14.5 101270 39
2011-06-17 08:10:05 51°20.016 2°50.141 4.1 253 14.5 101270 39
2011-06-17 08:10:09 51°20.028 2°50.131 5.1 255 14.5 101280 38
2011-06-17 08:10:15 51°20.046 2°50.117 4.5 253 14.5 101280 38
2011-06-17 08:10:20 51°20.062 2°50.106 4.1 251 14.5 101270 39
2011-06-17 08:10:25 51°20.077 2°50.094 4 255 14.5 101270 39
2011-06-17 08:10:29 51°20.089 2°50.085 3.5 253 14.5 101280 39
2011-06-17 08:10:35 51°20.106 2°50.07 4 252 14.5 101280 39
2011-06-17 08:10:40 51°20.12 2°50.058 3.9 251 14.5 101280 39
2011-06-17 08:10:45 51°20.133 2°50.047 5.4 255 14.5 101280 39
2011-06-17 08:10:49 51°20.143 2°50.037 4.4 254 14.5 101280 39
2011-06-17 08:10:55 51°20.158 2°50.023 3.5 255 14.5 101280 39
2011-06-17 08:11:00 51°20.171 2°50.011 5.4 259 14.5 101280 37
2011-06-17 08:11:05 51°20.183 2°50 4.6 259 14.5 101280 37
2011-06-17 08:11:10 51°20.195 2°49.988 4.1 264 14.5 101270 39
2011-06-17 08:11:15 51°20.206 2°49.977 4 261 14.5 101270 39
2011-06-17 08:11:20 51°20.218 2°49.965 3.9 260 14.5 101280 39
2011-06-17 08:11:25 51°20.229 2°49.953 4.8 251 14.5 101280 39
2011-06-17 08:11:29 51°20.238 2°49.944 4.4 249 14.5 101270 39
2011-06-17 08:11:35 51°20.252 2°49.931 4.4 255 14.5 101270 39
2011-06-17 08:11:40 51°20.263 2°49.92 5.3 252 14.5 101270 38
2011-06-17 08:11:45 51°20.274 2°49.909 5.4 258 14.5 101270 38
2011-06-17 08:11:49 51°20.284 2°49.901 4.9 260 14.5 101280 38
2011-06-17 08:11:55 51°20.297 2°49.888 5.5 255 14.5 101280 38
2011-06-17 08:12:00 51°20.308 2°49.878 5.4 256 14.5 101270 39
2011-06-17 08:12:05 51°20.32 2°49.867 5.2 256 14.5 101270 39
2011-06-17 08:12:09 51°20.328 2°49.859 4.6 256 14.6 101270 38
2011-06-17 08:12:15 51°20.342 2°49.846 5.6 260 14.6 101270 38
2011-06-17 08:12:20 51°20.353 2°49.836 4.8 259 14.5 101270 39
2011-06-17 08:12:25 51°20.364 2°49.825 5.7 260 14.5 101270 39
2011-06-17 08:12:30 51°20.376 2°49.814 5.4 260 14.6 101270 38
2011-06-17 08:12:35 51°20.387 2°49.804 5.8 258 14.6 101270 38
2011-06-17 08:12:40 51°20.398 2°49.794 4 257 14.6 101280 38
2011-06-17 08:12:45 51°20.409 2°49.783 3.1 260 14.6 101280 38
2011-06-17 08:12:49 51°20.418 2°49.775 3.3 260 14.5 101270 38
2011-06-17 08:12:55 51°20.432 2°49.763 3.5 264 14.5 101270 38
2011-06-17 08:13:00 51°20.443 2°49.753 2.6 261 14.6 101270 38
2011-06-17 08:13:05 51°20.454 2°49.743 4.2 251 14.6 101270 38
2011-06-17 08:13:09 51°20.463 2°49.735 4.5 19 14.5 101270 39
2011-06-17 08:13:15 51°20.477 2°49.723 4.5 250 14.5 101270 39
2011-06-17 08:13:20 51°20.489 2°49.714 6 254 14.6 101270 39
2011-06-17 08:13:25 51°20.5 2°49.704 5.4 253 14.6 101270 39
2011-06-17 08:13:30 51°20.511 2°49.694 5.7 255 14.6 101270 38
2011-06-17 08:13:35 51°20.523 2°49.684 5.2 250 14.6 101270 38
2011-06-17 08:13:40 51°20.534 2°49.673 5.8 255 14.6 101270 37
2011-06-17 08:13:45 51°20.545 2°49.663 6.6 257 14.6 101270 37
2011-06-17 08:13:49 51°20.554 2°49.655 6.6 256 14.6 101270 38
2011-06-17 08:13:55 51°20.567 2°49.642 5.1 258 14.6 101270 38
2011-06-17 08:14:00 51°20.577 2°49.631 5.5 256 14.6 101270 39
2011-06-17 08:14:05 51°20.588 2°49.62 5.3 256 14.6 101270 39
2011-06-17 08:14:10 51°20.598 2°49.61 6.8 256 14.6 101270 39
2011-06-17 08:14:15 51°20.609 2°49.599 5.7 258 14.6 101270 39
2011-06-17 08:14:20 51°20.62 2°49.588 5.6 258 14.6 101270 39
2011-06-17 08:14:25 51°20.63 2°49.577 5.3 257 14.6 101270 39
2011-06-17 08:14:29 51°20.638 2°49.567 5.3 253 14.6 101270 38
2011-06-17 08:14:35 51°20.651 2°49.554 5.2 257 14.6 101270 38
2011-06-17 08:14:40 51°20.661 2°49.542 4.5 251 14.6 101270 39
2011-06-17 08:14:45 51°20.671 2°49.531 5.5 256 14.6 101270 39
2011-06-17 08:14:49 51°20.679 2°49.522 5.5 257 14.6 101270 39
2011-06-17 08:14:55 51°20.691 2°49.509 6 251 14.6 101270 39
2011-06-17 08:15:00 51°20.702 2°49.497 5.6 257 14.6 101270 39
2011-06-17 08:15:05 51°20.712 2°49.486 6.1 254 14.6 101270 39
2011-06-17 08:15:09 51°20.72 2°49.477 6.5 258 14.6 101270 39
2011-06-17 08:15:15 51°20.732 2°49.463 6.6 258 14.6 101270 39
2011-06-17 08:15:20 51°20.743 2°49.452 6.8 257 14.6 101270 39
2011-06-17 08:15:25 51°20.753 2°49.44 5.2 254 14.6 101270 39
2011-06-17 08:15:30 51°20.763 2°49.43 5.1 256 14.7 101270 39
2011-06-17 08:15:35 51°20.773 2°49.418 4.7 253 14.7 101270 39
2011-06-17 08:15:40 51°20.784 2°49.407 5.8 255 14.7 101260 39
2011-06-17 08:15:45 51°20.794 2°49.395 5.9 259 14.7 101260 39
2011-06-17 08:15:50 51°20.804 2°49.384 5.4 258 14.7 101260 39
2011-06-17 08:15:55 51°20.814 2°49.374 5.3 259 14.7 101260 39
2011-06-17 08:16:00 51°20.825 2°49.363 5.7 260 14.7 101270 39
2011-06-17 08:16:05 51°20.835 2°49.352 4.7 259 14.7 101270 39
2011-06-17 08:16:09 51°20.843 2°49.343 4.4 261 14.7 101260 39
2011-06-17 08:16:15 51°20.856 2°49.331 3.9 262 14.7 101260 39
2011-06-17 08:16:20 51°20.867 2°49.32 2.6 263 14.7 101260 37
2011-06-17 08:16:25 51°20.878 2°49.309 3 261 14.7 101260 37
2011-06-17 08:16:29 51°20.886 2°49.3 4.4 262 14.7 101270 39
2011-06-17 08:16:35 51°20.9 2°49.288 4.9 259 14.7 101270 39
2011-06-17 08:16:40 51°20.911 2°49.277 5.1 257 14.7 101270 39
2011-06-17 08:16:45 51°20.922 2°49.267 4.7 260 14.7 101270 39
2011-06-17 08:16:49 51°20.932 2°49.258 5.3 261 14.6 101270 39
2011-06-17 08:16:55 51°20.946 2°49.244 5 259 14.6 101270 39
2011-06-17 08:17:00 51°20.958 2°49.233 4.5 262 14.6 101270 39
2011-06-17 08:17:05 51°20.971 2°49.221 4.8 253 14.6 101270 39
2011-06-17 08:17:10 51°20.984 2°49.21 3.2 249 14.6 101270 38
2011-06-17 08:17:15 51°20.997 2°49.198 4.9 256 14.6 101270 38
2011-06-17 08:17:20 51°21.011 2°49.186 4.9 260 14.6 101270 38
2011-06-17 08:17:25 51°21.024 2°49.174 4.7 255 14.6 101270 38
2011-06-17 08:17:30 51°21.038 2°49.161 4.3 250 14.6 101260 39
2011-06-17 08:17:35 51°21.053 2°49.148 5 249 14.6 101260 39
2011-06-17 08:17:40 51°21.067 2°49.134 4.7 245 14.6 101270 39
2011-06-17 08:17:45 51°21.082 2°49.121 5.1 245 14.6 101270 39
2011-06-17 08:17:50 51°21.097 2°49.107 5.1 246 14.6 101270 38
2011-06-17 08:17:55 51°21.112 2°49.094 3.7 244 14.6 101270 38
2011-06-17 08:18:00 51°21.128 2°49.082 3.8 23 14.6 101260 39
2011-06-17 08:18:05 51°21.143 2°49.069 4 243 14.6 101260 39
2011-06-17 08:18:09 51°21.156 2°49.061 4 247 14.6 101260 39
2011-06-17 08:18:15 51°21.175 2°49.047 4 245 14.6 101260 39
2011-06-17 08:18:20 51°21.191 2°49.037 4.5 20 14.6 101260 39
2011-06-17 08:18:25 51°21.207 2°49.027 3.9 247 14.6 101260 39
2011-06-17 08:18:29 51°21.22 2°49.019 3.9 23 14.6 101270 39
2011-06-17 08:18:35 51°21.24 2°49.006 3.7 247 14.6 101270 39
2011-06-17 08:18:40 51°21.256 2°48.998 3.4 24 14.6 101260 40
2011-06-17 08:18:45 51°21.272 2°48.988 3.5 246 14.6 101260 40
2011-06-17 08:18:50 51°21.288 2°48.979 3.3 19 14.6 101270 38
2011-06-17 08:18:55 51°21.304 2°48.969 4.1 248 14.6 101270 38
2011-06-17 08:19:00 51°21.321 2°48.96 3.5 21 14.6 101270 38
2011-06-17 08:19:05 51°21.337 2°48.95 3.6 245 14.6 101270 38
2011-06-17 08:19:09 51°21.35 2°48.943 3.7 250 14.6 101260 39
2011-06-17 08:19:15 51°21.369 2°48.931 2.8 248 14.6 101260 39
2011-06-17 08:19:20 51°21.385 2°48.922 3.7 23 14.6 101260 38
2011-06-17 08:19:25 51°21.401 2°48.912 3.3 245 14.6 101260 38
2011-06-17 08:19:29 51°21.414 2°48.904 3.2 245 14.6 101260 38
2011-06-17 08:19:35 51°21.434 2°48.892 2.6 245 14.6 101260 38
2011-06-17 08:19:40 51°21.45 2°48.882 2.8 246 14.6 101260 38
2011-06-17 08:19:45 51°21.466 2°48.872 1.9 246 14.6 101260 38
2011-06-17 08:19:49 51°21.48 2°48.864 1.5 20 14.6 101260 40
2011-06-17 08:19:55 51°21.499 2°48.852 2.1 245 14.6 101260 40
2011-06-17 08:20:00 51°21.515 2°48.842 1.9 21 14.6 101260 39
2011-06-17 08:20:05 51°21.531 2°48.83 1.6 244 14.6 101260 39
2011-06-17 08:20:10 51°21.547 2°48.818 0.8 248 14.6 101260 38
2011-06-17 08:20:15 51°21.563 2°48.807 1.2 243 14.6 101260 38
2011-06-17 08:20:20 51°21.579 2°48.794 1.6 26 14.6 101260 38
2011-06-17 08:20:25 51°21.595 2°48.783 2.9 244 14.6 101260 38
2011-06-17 08:20:30 51°21.611 2°48.77 2.9 19 14.6 101260 40
2011-06-17 08:20:35 51°21.627 2°48.759 2.7 249 14.6 101260 40
2011-06-17 08:20:40 51°21.643 2°48.747 2.8 22 14.6 101260 39
2011-06-17 08:20:45 51°21.659 2°48.737 4.6 239 14.6 101260 39
2011-06-17 08:20:49 51°21.672 2°48.728 3.6 22 14.6 101270 38
2011-06-17 08:20:55 51°21.692 2°48.715 3.8 247 14.6 101270 38
2011-06-17 08:21:00 51°21.708 2°48.703 3.3 250 14.6 101260 38
2011-06-17 08:21:05 51°21.724 2°48.692 3.3 243 14.6 101260 38
2011-06-17 08:21:09 51°21.737 2°48.684 3.4 20 14.6 101260 38
2011-06-17 08:21:15 51°21.756 2°48.67 4.6 250 14.6 101260 38
2011-06-17 08:21:20 51°21.773 2°48.658 4.9 20 14.6 101260 39
2011-06-17 08:21:25 51°21.789 2°48.646 3.6 251 14.6 101260 39
2011-06-17 08:21:30 51°21.805 2°48.635 4 252 14.6 101260 40
2011-06-17 08:21:35 51°21.821 2°48.623 3.3 251 14.6 101260 40
2011-06-17 08:21:40 51°21.837 2°48.612 3 254 14.6 101260 37
2011-06-17 08:21:45 51°21.853 2°48.6 3.7 235 14.6 101260 37
2011-06-17 08:21:50 51°21.87 2°48.59 3.8 24 14.6 101250 39
2011-06-17 08:21:55 51°21.886 2°48.579 4 244 14.6 101250 39
2011-06-17 08:22:00 51°21.902 2°48.57 4 246 14.6 101260 38
2011-06-17 08:22:05 51°21.919 2°48.56 3.5 244 14.6 101260 38
2011-06-17 08:22:09 51°21.932 2°48.552 3.2 21 14.6 101260 38
2011-06-17 08:22:15 51°21.951 2°48.541 3.4 246 14.6 101260 38
2011-06-17 08:22:20 51°21.967 2°48.532 2.7 22 14.6 101250 39
2011-06-17 08:22:25 51°21.984 2°48.523 2.6 246 14.6 101250 39
2011-06-17 08:22:29 51°21.997 2°48.516 3.2 26 14.6 101260 38
2011-06-17 08:22:35 51°22.017 2°48.506 3.1 244 14.6 101260 38
2011-06-17 08:22:40 51°22.033 2°48.497 1.7 242 14.6 101250 39
2011-06-17 08:22:45 51°22.049 2°48.489 1.6 247 14.6 101250 39
2011-06-17 08:22:49 51°22.062 2°48.482 1.8 246 14.6 101250 38
2011-06-17 08:22:55 51°22.082 2°48.471 2.2 243 14.6 101250 38
2011-06-17 08:23:00 51°22.098 2°48.462 1.1 246 14.6 101250 38
2011-06-17 08:23:05 51°22.114 2°48.452 3.5 239 14.6 101250 38
2011-06-17 08:23:09 51°22.127 2°48.445 3.7 28 14.6 101260 39
2011-06-17 08:23:15 51°22.147 2°48.433 3.2 244 14.6 101260 39
2011-06-17 08:23:20 51°22.163 2°48.422 3.2 242 14.6 101250 38
2011-06-17 08:23:25 51°22.179 2°48.412 3.2 249 14.6 101250 38
2011-06-17 08:23:29 51°22.192 2°48.404 3.7 20 14.6 101250 38
2011-06-17 08:23:35 51°22.211 2°48.391 4.2 249 14.6 101250 38
2011-06-17 08:23:40 51°22.227 2°48.381 4.7 247 14.6 101250 38
2011-06-17 08:23:45 51°22.243 2°48.37 3.9 243 14.6 101250 38
2011-06-17 08:23:49 51°22.256 2°48.361 4.2 245 14.6 101260 38
2011-06-17 08:23:55 51°22.275 2°48.348 3.4 249 14.6 101260 38
2011-06-17 08:24:00 51°22.291 2°48.338 2.8 251 14.6 101250 39
2011-06-17 08:24:05 51°22.307 2°48.328 3.6 250 14.6 101250 39
2011-06-17 08:24:10 51°22.324 2°48.318 3.9 252 14.5 101250 39
2011-06-17 08:24:15 51°22.34 2°48.309 3.5 250 14.5 101250 39
2011-06-17 08:24:20 51°22.356 2°48.299 4 252 14.6 101250 38
2011-06-17 08:24:25 51°22.372 2°48.29 3.9 248 14.6 101250 38
2011-06-17 08:24:30 51°22.388 2°48.281 2.6 245 14.6 101250 38
2011-06-17 08:24:35 51°22.404 2°48.272 4.4 245 14.6 101250 38
2011-06-17 08:24:40 51°22.42 2°48.262 4.2 246 14.6 101250 38
2011-06-17 08:24:45 51°22.436 2°48.252 4.1 250 14.6 101250 38
2011-06-17 08:24:49 51°22.449 2°48.245 4.1 253 14.6 101240 38
2011-06-17 08:24:55 51°22.468 2°48.233 3.8 249 14.6 101240 38
2011-06-17 08:25:00 51°22.483 2°48.223 4.3 246 14.6 101250 38
2011-06-17 08:25:05 51°22.499 2°48.212 4.7 253 14.6 101250 38
2011-06-17 08:25:09 51°22.512 2°48.202 5.4 254 14.6 101250 38
2011-06-17 08:25:15 51°22.53 2°48.189 3.7 255 14.6 101250 38
2011-06-17 08:25:20 51°22.545 2°48.177 4.5 258 14.6 101250 39
2011-06-17 08:25:25 51°22.56 2°48.165 4.3 252 14.6 101250 39
2011-06-17 08:25:29 51°22.572 2°48.155 4.3 243 14.6 101250 39
2011-06-17 08:25:35 51°22.59 2°48.14 4.7 252 14.6 101250 39
2011-06-17 08:25:40 51°22.605 2°48.128 4.8 252 14.6 101250 38
2011-06-17 08:25:45 51°22.621 2°48.116 3 250 14.6 101250 38
2011-06-17 08:25:49 51°22.633 2°48.109 2.2 250 14.6 101250 39
2011-06-17 08:25:55 51°22.652 2°48.097 2.6 254 14.6 101250 39
2011-06-17 08:26:00 51°22.668 2°48.088 3 253 14.6 101250 39
2011-06-17 08:26:05 51°22.684 2°48.079 2.2 235 14.6 101250 39
2011-06-17 08:26:09 51°22.697 2°48.072 2.9 247 14.6 101250 39
2011-06-17 08:26:15 51°22.716 2°48.061 2.4 245 14.6 101250 39
2011-06-17 08:26:20 51°22.732 2°48.053 1.7 23 14.6 101250 38
2011-06-17 08:26:25 51°22.747 2°48.043 2.9 245 14.6 101250 38
2011-06-17 08:26:30 51°22.763 2°48.034 3.5 251 14.6 101250 38
2011-06-17 08:26:35 51°22.779 2°48.024 3.5 254 14.6 101250 38
2011-06-17 08:26:40 51°22.795 2°48.015 3.5 257 14.6 101240 38
2011-06-17 08:26:45 51°22.81 2°48.005 1.4 250 14.6 101240 38
2011-06-17 08:26:49 51°22.823 2°47.997 2.5 255 14.7 101250 38
2011-06-17 08:26:55 51°22.842 2°47.985 3.5 250 14.7 101250 38
2011-06-17 08:27:00 51°22.858 2°47.975 3.2 249 14.7 101240 38
2011-06-17 08:27:05 51°22.873 2°47.964 4.5 251 14.7 101240 38
2011-06-17 08:27:10 51°22.889 2°47.954 5.1 251 14.7 101240 40
2011-06-17 08:27:15 51°22.905 2°47.943 3.5 248 14.7 101240 40
2011-06-17 08:27:20 51°22.92 2°47.933 3 247 14.7 101250 39
2011-06-17 08:27:25 51°22.936 2°47.923 3.1 253 14.7 101250 39
2011-06-17 08:27:29 51°22.949 2°47.915 2.8 257 14.7 101250 38
2011-06-17 08:27:35 51°22.968 2°47.903 2.7 247 14.7 101250 38
2011-06-17 08:27:40 51°22.984 2°47.893 2.3 247 14.7 101240 38
2011-06-17 08:27:45 51°23 2°47.883 2.5 241 14.7 101240 38
2011-06-17 08:27:50 51°23.016 2°47.874 3.2 21 14.7 101240 39
2011-06-17 08:27:55 51°23.031 2°47.864 2.3 240 14.7 101240 39
2011-06-17 08:28:00 51°23.047 2°47.855 2.3 21 14.7 101250 39
2011-06-17 08:28:05 51°23.064 2°47.844 4.4 245 14.7 101250 39
2011-06-17 08:28:09 51°23.076 2°47.837 4.5 21 14.7 101250 39
2011-06-17 08:28:15 51°23.096 2°47.825 4.7 252 14.7 101250 39
2011-06-17 08:28:20 51°23.112 2°47.815 4.4 252 14.7 101240 38
2011-06-17 08:28:25 51°23.127 2°47.804 4.3 255 14.7 101240 38
2011-06-17 08:28:30 51°23.143 2°47.794 4.7 252 14.7 101230 39
2011-06-17 08:28:35 51°23.159 2°47.783 3.5 253 14.7 101230 39
2011-06-17 08:28:40 51°23.175 2°47.774 3.1 253 14.6 101240 38
2011-06-17 08:28:45 51°23.191 2°47.763 3.8 248 14.6 101240 38
2011-06-17 08:28:50 51°23.207 2°47.753 3 248 14.7 101230 39
2011-06-17 08:28:55 51°23.223 2°47.742 2.6 248 14.7 101230 39
2011-06-17 08:29:00 51°23.239 2°47.732 3.7 21 14.6 101230 39
2011-06-17 08:29:05 51°23.255 2°47.722 4.1 250 14.6 101230 39
2011-06-17 08:29:10 51°23.271 2°47.713 4.3 250 14.6 101240 39
2011-06-17 08:29:15 51°23.287 2°47.703 3.9 251 14.6 101240 39
2011-06-17 08:29:20 51°23.303 2°47.694 3.6 253 14.6 101240 39
2011-06-17 08:29:25 51°23.319 2°47.683 3.8 252 14.6 101240 39
2011-06-17 08:29:29 51°23.332 2°47.676 3.1 256 14.6 101240 39
2011-06-17 08:29:35 51°23.351 2°47.663 3.2 255 14.6 101240 39
2011-06-17 08:29:40 51°23.367 2°47.653 3.2 254 14.7 101240 37
2011-06-17 08:29:45 51°23.382 2°47.642 2.6 253 14.7 101240 37
2011-06-17 08:29:49 51°23.395 2°47.633 2.4 22 14.6 101240 38
2011-06-17 08:29:55 51°23.414 2°47.618 3.3 255 14.6 101240 38
2011-06-17 08:30:00 51°23.43 2°47.607 3.9 251 14.6 101230 38
2011-06-17 08:30:05 51°23.446 2°47.595 2.9 245 14.6 101230 38
2011-06-17 08:30:09 51°23.458 2°47.586 3.2 245 14.6 101240 38
2011-06-17 08:30:15 51°23.477 2°47.573 2.3 245 14.6 101240 38
2011-06-17 08:30:20 51°23.493 2°47.561 2.9 253 14.6 101230 38
2011-06-17 08:30:25 51°23.509 2°47.55 2.5 252 14.6 101230 38
2011-06-17 08:30:29 51°23.521 2°47.542 2.7 249 14.6 101240 38
2011-06-17 08:30:35 51°23.54 2°47.529 2.5 255 14.6 101240 38
2011-06-17 08:30:40 51°23.556 2°47.518 2.2 250 14.7 101240 38
2011-06-17 08:30:45 51°23.572 2°47.509 2.5 245 14.7 101240 38
2011-06-17 08:30:49 51°23.585 2°47.5 3 247 14.6 101240 38
2011-06-17 08:30:55 51°23.604 2°47.488 3.1 246 14.6 101240 38
2011-06-17 08:31:00 51°23.62 2°47.478 3.4 27 14.7 101240 38
2011-06-17 08:31:05 51°23.636 2°47.468 4.6 258 14.7 101240 38
2011-06-17 08:31:09 51°23.649 2°47.46 3 249 14.7 101240 38
2011-06-17 08:31:15 51°23.668 2°47.447 3.4 255 14.7 101240 38
2011-06-17 08:31:20 51°23.684 2°47.437 3.2 258 14.7 101240 38
2011-06-17 08:31:25 51°23.7 2°47.426 3.3 255 14.7 101240 38
2011-06-17 08:31:29 51°23.713 2°47.417 2.9 252 14.6 101240 39
2011-06-17 08:31:35 51°23.732 2°47.405 1.5 248 14.6 101240 39
2011-06-17 08:31:40 51°23.748 2°47.394 0.7 247 14.7 101230 38
2011-06-17 08:31:45 51°23.764 2°47.384 3.8 242 14.7 101230 38
2011-06-17 08:31:49 51°23.777 2°47.374 3.7 22 14.7 101240 40
2011-06-17 08:31:55 51°23.796 2°47.361 3.6 243 14.7 101240 40
2011-06-17 08:32:00 51°23.811 2°47.35 3.6 245 14.7 101240 40
2011-06-17 08:32:05 51°23.827 2°47.338 3.8 34 14.7 101240 40
2011-06-17 08:32:09 51°23.84 2°47.33 4.2 29 14.7 101240 38
2011-06-17 08:32:15 51°23.859 2°47.316 4.4 241 14.7 101240 38
2011-06-17 08:32:20 51°23.875 2°47.306 4 22 14.7 101230 38
2011-06-17 08:32:25 51°23.891 2°47.295 4.2 247 14.7 101230 38
2011-06-17 08:32:29 51°23.904 2°47.287 4.4 247 14.7 101240 39
2011-06-17 08:32:35 51°23.923 2°47.274 3.8 248 14.7 101240 39
2011-06-17 08:32:40 51°23.939 2°47.264 3.7 247 14.7 101230 39
2011-06-17 08:32:45 51°23.955 2°47.253 3.9 250 14.7 101230 39
2011-06-17 08:32:49 51°23.968 2°47.245 4.1 242 14.7 101230 39
2011-06-17 08:32:55 51°23.987 2°47.232 3.5 246 14.7 101230 39
2011-06-17 08:33:00 51°24.003 2°47.221 4.6 248 14.7 101230 39
2011-06-17 08:33:05 51°24.019 2°47.211 3.2 247 14.7 101230 39
2011-06-17 08:33:09 51°24.032 2°47.202 3.1 19 14.7 101230 39
2011-06-17 08:33:15 51°24.051 2°47.189 4.1 248 14.7 101230 39
2011-06-17 08:33:20 51°24.067 2°47.178 3.6 245 14.7 101230 38
2011-06-17 08:33:25 51°24.082 2°47.166 3.9 247 14.7 101230 38
2011-06-17 08:33:29 51°24.095 2°47.156 4.2 248 14.7 101220 40
2011-06-17 08:33:35 51°24.114 2°47.142 3.8 248 14.7 101220 40
2011-06-17 08:33:40 51°24.13 2°47.13 4 247 14.6 101230 39
2011-06-17 08:33:45 51°24.145 2°47.118 3.5 253 14.6 101230 39
2011-06-17 08:33:49 51°24.158 2°47.109 3.3 250 14.6 101230 39
2011-06-17 08:33:55 51°24.177 2°47.093 2.9 254 14.6 101230 39
2011-06-17 08:34:00 51°24.192 2°47.081 3 21 14.6 101230 39
2011-06-17 08:34:05 51°24.208 2°47.069 2.8 245 14.6 101230 39
2011-06-17 08:34:09 51°24.221 2°47.06 2.2 20 14.6 101230 38
2011-06-17 08:34:15 51°24.239 2°47.045 3.6 243 14.6 101230 38
2011-06-17 08:34:20 51°24.255 2°47.033 3.5 248 14.6 101230 40
2011-06-17 08:34:25 51°24.271 2°47.022 4.3 244 14.6 101230 40
2011-06-17 08:34:29 51°24.283 2°47.012 4.4 247 14.6 101230 38
2011-06-17 08:34:35 51°24.303 2°46.999 4 245 14.6 101230 38
2011-06-17 08:34:40 51°24.318 2°46.987 3.7 246 14.6 101230 39
2011-06-17 08:34:45 51°24.334 2°46.975 3.6 244 14.6 101230 39
2011-06-17 08:34:49 51°24.346 2°46.966 3.4 25 14.6 101240 40
2011-06-17 08:34:55 51°24.365 2°46.952 3.1 249 14.6 101240 40
2011-06-17 08:35:00 51°24.381 2°46.941 2.7 22 14.6 101230 37
2011-06-17 08:35:05 51°24.397 2°46.93 2.5 240 14.6 101230 37
2011-06-17 08:35:09 51°24.41 2°46.921 2.3 248 14.6 101240 39
2011-06-17 08:35:15 51°24.429 2°46.907 1.3 248 14.6 101240 39
2011-06-17 08:35:20 51°24.445 2°46.896 1.7 250 14.6 101230 40
2011-06-17 08:35:25 51°24.461 2°46.884 3.6 30 14.6 101230 40
2011-06-17 08:35:29 51°24.473 2°46.875 3.6 27 14.6 101230 39
2011-06-17 08:35:35 51°24.492 2°46.861 2.6 247 14.6 101230 39
2011-06-17 08:35:40 51°24.508 2°46.849 4.4 256 14.6 101230 39
2011-06-17 08:35:45 51°24.523 2°46.836 3.2 253 14.6 101230 39
2011-06-17 08:35:50 51°24.539 2°46.825 1.8 23 14.6 101230 39
2011-06-17 08:35:55 51°24.555 2°46.812 3.2 247 14.6 101230 39
2011-06-17 08:36:00 51°24.57 2°46.8 2.7 19 14.6 101230 40
2011-06-17 08:36:05 51°24.586 2°46.788 3.2 241 14.6 101230 40
2011-06-17 08:36:09 51°24.599 2°46.779 3.4 26 14.6 101230 40
2011-06-17 08:36:15 51°24.618 2°46.764 4.4 242 14.6 101230 40
2011-06-17 08:36:20 51°24.634 2°46.753 4.2 25 14.6 101230 40
2011-06-17 08:36:25 51°24.65 2°46.741 3.6 244 14.6 101230 40
2011-06-17 08:36:29 51°24.662 2°46.733 3.5 19 14.6 101230 40
2011-06-17 08:36:35 51°24.681 2°46.719 3 242 14.6 101230 40
2011-06-17 08:36:40 51°24.697 2°46.709 3.1 23 14.6 101230 39
2011-06-17 08:36:45 51°24.713 2°46.698 3.5 245 14.6 101230 39
2011-06-17 08:36:49 51°24.726 2°46.689 3 245 14.6 101230 40
2011-06-17 08:36:55 51°24.745 2°46.676 3.3 245 14.6 101230 40
2011-06-17 08:37:00 51°24.761 2°46.664 2.7 21 14.6 101230 39
2011-06-17 08:37:05 51°24.776 2°46.652 2.6 243 14.6 101230 39
2011-06-17 08:37:10 51°24.792 2°46.64 2.1 20 14.6 101230 39
2011-06-17 08:37:15 51°24.807 2°46.628 3.3 244 14.6 101230 39
2011-06-17 08:37:20 51°24.823 2°46.616 3.9 23 14.6 101230 40
2011-06-17 08:37:25 51°24.838 2°46.604 4.4 243 14.6 101230 40
2011-06-17 08:37:29 51°24.851 2°46.594 3.7 20 14.6 101230 40
2011-06-17 08:37:35 51°24.869 2°46.579 4.9 250 14.6 101230 40
2011-06-17 08:37:40 51°24.885 2°46.567 5 250 14.6 101220 38
2011-06-17 08:37:45 51°24.9 2°46.555 4.2 251 14.6 101220 38
2011-06-17 08:37:49 51°24.913 2°46.546 4.4 252 14.6 101220 39
2011-06-17 08:37:55 51°24.932 2°46.532 4.6 252 14.6 101220 39
2011-06-17 08:38:00 51°24.947 2°46.52 3.9 19 14.6 101220 40
2011-06-17 08:38:05 51°24.963 2°46.508 3.4 254 14.6 101220 40
2011-06-17 08:38:09 51°24.976 2°46.499 4.1 254 14.6 101210 39
2011-06-17 08:38:15 51°24.995 2°46.485 3.3 247 14.6 101210 39
2011-06-17 08:38:20 51°25.01 2°46.474 4.2 22 14.6 101220 39
2011-06-17 08:38:25 51°25.026 2°46.463 3.4 248 14.6 101220 39
2011-06-17 08:38:29 51°25.039 2°46.455 4.4 253 14.6 101220 39
2011-06-17 08:38:35 51°25.058 2°46.441 4.1 255 14.6 101220 39
2011-06-17 08:38:40 51°25.074 2°46.429 4.7 257 14.6 101220 39
2011-06-17 08:38:45 51°25.09 2°46.417 3.9 254 14.6 101220 39
2011-06-17 08:38:49 51°25.102 2°46.409 3.8 253 14.6 101220 39
2011-06-17 08:38:55 51°25.121 2°46.394 4 251 14.6 101220 39
2011-06-17 08:39:00 51°25.137 2°46.382 4.6 253 14.6 101210 39
2011-06-17 08:39:05 51°25.153 2°46.369 4 256 14.6 101210 39
2011-06-17 08:39:09 51°25.165 2°46.36 3.7 255 14.6 101220 39
2011-06-17 08:39:15 51°25.184 2°46.345 4.2 255 14.6 101220 39
2011-06-17 08:39:20 51°25.2 2°46.333 3.9 253 14.5 101230 40
2011-06-17 08:39:25 51°25.216 2°46.321 3 253 14.5 101230 40
2011-06-17 08:39:29 51°25.229 2°46.312 2.6 250 14.5 101210 38
2011-06-17 08:39:35 51°25.248 2°46.298 3.2 256 14.5 101210 38
2011-06-17 08:39:40 51°25.263 2°46.287 3.4 256 14.5 101220 38
2011-06-17 08:39:45 51°25.279 2°46.276 3.3 253 14.5 101220 38
2011-06-17 08:39:49 51°25.292 2°46.266 3 254 14.5 101220 38
2011-06-17 08:39:55 51°25.311 2°46.253 1.9 245 14.5 101220 38
2011-06-17 08:40:00 51°25.327 2°46.242 2.3 252 14.5 101210 39
2011-06-17 08:40:05 51°25.343 2°46.232 2.9 249 14.5 101210 39
2011-06-17 08:40:10 51°25.359 2°46.22 3.1 252 14.5 101220 39
2011-06-17 08:40:15 51°25.375 2°46.209 4.3 254 14.5 101220 39
2011-06-17 08:40:20 51°25.39 2°46.197 4.6 250 14.4 101220 37
2011-06-17 08:40:25 51°25.406 2°46.185 4.2 254 14.4 101220 37
2011-06-17 08:40:30 51°25.422 2°46.173 3.8 253 14.4 101220 40
2011-06-17 08:40:35 51°25.437 2°46.162 3.3 251 14.4 101220 40
2011-06-17 08:40:40 51°25.453 2°46.149 2.9 254 14.5 101220 38
2011-06-17 08:40:45 51°25.469 2°46.137 2.3 250 14.5 101220 38
2011-06-17 08:40:50 51°25.484 2°46.125 1.8 253 14.4 101210 38
2011-06-17 08:40:55 51°25.499 2°46.112 3.2 241 14.4 101210 38
2011-06-17 08:41:00 51°25.515 2°46.099 3.6 249 14.4 101210 39
2011-06-17 08:41:05 51°25.53 2°46.086 3.4 250 14.4 101210 39
2011-06-17 08:41:09 51°25.543 2°46.077 3.7 22 14.4 101220 39
2011-06-17 08:41:15 51°25.562 2°46.062 2.5 250 14.4 101220 39
2011-06-17 08:41:20 51°25.578 2°46.05 3.7 253 14.4 101220 39
2011-06-17 08:41:25 51°25.593 2°46.039 2.4 245 14.4 101220 39
2011-06-17 08:41:29 51°25.606 2°46.03 2.5 247 14.5 101220 40
2011-06-17 08:41:35 51°25.625 2°46.016 1.9 248 14.5 101220 40
2011-06-17 08:41:40 51°25.64 2°46.005 2.2 21 14.5 101210 38
2011-06-17 08:41:45 51°25.656 2°45.995 2.5 253 14.5 101210 38
2011-06-17 08:41:49 51°25.669 2°45.986 1.9 246 14.5 101210 38
2011-06-17 08:41:55 51°25.688 2°45.973 2 243 14.5 101210 38
2011-06-17 08:42:00 51°25.704 2°45.963 3 246 14.5 101220 39
2011-06-17 08:42:05 51°25.72 2°45.952 2.6 33 14.5 101220 39
2011-06-17 08:42:09 51°25.732 2°45.943 3.2 22 14.5 101210 38
2011-06-17 08:42:15 51°25.751 2°45.931 3.8 248 14.5 101210 38
2011-06-17 08:42:20 51°25.767 2°45.919 3.8 22 14.5 101210 38
2011-06-17 08:42:25 51°25.782 2°45.908 1.7 246 14.5 101210 38
2011-06-17 08:42:30 51°25.798 2°45.896 3.1 21 14.5 101210 40
2011-06-17 08:42:35 51°25.814 2°45.885 2.3 247 14.5 101210 40
2011-06-17 08:42:40 51°25.829 2°45.874 2.5 249 14.6 101210 38
2011-06-17 08:42:45 51°25.845 2°45.863 1.4 245 14.6 101210 38
2011-06-17 08:42:49 51°25.858 2°45.855 0.3 245 14.6 101210 39
2011-06-17 08:42:55 51°25.877 2°45.842 2.6 247 14.6 101210 39
2011-06-17 08:43:00 51°25.892 2°45.831 1.5 22 14.6 101210 38
2011-06-17 08:43:05 51°25.908 2°45.82 1.9 250 14.6 101210 38
2011-06-17 08:43:09 51°25.92 2°45.811 0.8 251 14.6 101210 39
2011-06-17 08:43:15 51°25.939 2°45.797 3.3 242 14.6 101210 39
2011-06-17 08:43:20 51°25.955 2°45.785 3.6 22 14.6 101200 39
2011-06-17 08:43:25 51°25.97 2°45.773 5 248 14.6 101200 39
2011-06-17 08:43:29 51°25.983 2°45.763 3.7 248 14.6 101210 39
2011-06-17 08:43:35 51°26.001 2°45.749 4 248 14.6 101210 39
2011-06-17 08:43:40 51°26.016 2°45.737 3.7 250 14.6 101210 40
2011-06-17 08:43:45 51°26.032 2°45.726 4.1 252 14.6 101210 40
2011-06-17 08:43:50 51°26.048 2°45.714 3.9 251 14.6 101210 39
2011-06-17 08:43:55 51°26.064 2°45.704 2.9 249 14.6 101210 39
2011-06-17 08:44:00 51°26.079 2°45.692 4.4 251 14.6 101210 40
2011-06-17 08:44:05 51°26.095 2°45.681 0.2 250 14.6 101210 40
2011-06-17 08:44:09 51°26.107 2°45.671 0.1 248 14.6 101210 39
2011-06-17 08:44:15 51°26.126 2°45.656 -999 246 14.6 101210 39
2011-06-17 08:44:20 51°26.142 2°45.644 -999 250 14.6 101210 39
2011-06-17 08:44:25 51°26.157 2°45.632 0.1 252 14.6 101210 39
2011-06-17 08:44:30 51°26.172 2°45.62 0.1 247 14.6 101210 38
2011-06-17 08:44:35 51°26.188 2°45.608 -999 250 14.6 101210 38
2011-06-17 08:44:40 51°26.203 2°45.595 -999 252 14.5 101210 38
2011-06-17 08:44:45 51°26.219 2°45.584 -999 243 14.5 101210 38
2011-06-17 08:44:50 51°26.234 2°45.571 -999 24 14.6 101210 39
2011-06-17 08:44:55 51°26.25 2°45.559 -999 247 14.6 101210 39
2011-06-17 08:45:00 51°26.265 2°45.546 -999 248 14.5 101200 38
2011-06-17 08:45:05 51°26.281 2°45.534 -999 251 14.5 101200 38
2011-06-17 08:45:10 51°26.296 2°45.523 -999 251 14.5 101210 39
2011-06-17 08:45:15 51°26.312 2°45.51 0.5 255 14.5 101210 39
2011-06-17 08:45:20 51°26.328 2°45.498 0.2 251 14.6 101210 39
2011-06-17 08:45:25 51°26.343 2°45.485 0.1 251 14.6 101210 39
2011-06-17 08:45:29 51°26.355 2°45.476 0.1 248 14.6 101210 39
2011-06-17 08:45:35 51°26.374 2°45.462 -999 252 14.6 101210 39
2011-06-17 08:45:40 51°26.39 2°45.45 -999 251 14.6 101210 37
2011-06-17 08:45:45 51°26.406 2°45.439 -999 248 14.6 101210 37
2011-06-17 08:45:49 51°26.418 2°45.43 -999 253 14.6 101210 39
2011-06-17 08:45:55 51°26.437 2°45.418 -999 250 14.6 101210 39
2011-06-17 08:46:00 51°26.453 2°45.406 -999 251 14.6 101200 39
2011-06-17 08:46:05 51°26.469 2°45.396 -999 250 14.6 101200 39
2011-06-17 08:46:09 51°26.481 2°45.387 -999 250 14.6 101200 39
2011-06-17 08:46:15 51°26.501 2°45.375 -999 253 14.6 101200 39
2011-06-17 08:46:20 51°26.516 2°45.363 -999 258 14.6 101210 39
2011-06-17 08:46:25 51°26.532 2°45.353 -999 257 14.6 101210 39
2011-06-17 08:46:29 51°26.545 2°45.345 -999 256 14.6 101210 39
2011-06-17 08:46:35 51°26.564 2°45.331 -999 252 14.6 101210 39
2011-06-17 08:46:40 51°26.58 2°45.32 -999 256 14.6 101210 39
2011-06-17 08:46:45 51°26.595 2°45.308 -999 258 14.6 101210 39
2011-06-17 08:46:49 51°26.608 2°45.3 -999 257 14.6 101200 39
2011-06-17 08:46:55 51°26.627 2°45.286 -999 260 14.6 101200 39
2011-06-17 08:47:00 51°26.643 2°45.275 -999 254 14.6 101210 39
2011-06-17 08:47:05 51°26.658 2°45.263 -999 257 14.6 101210 39
2011-06-17 08:47:10 51°26.674 2°45.251 -999 251 14.6 101210 38
2011-06-17 08:47:15 51°26.69 2°45.239 0.1 253 14.6 101210 38
2011-06-17 08:47:20 51°26.705 2°45.227 0.1 257 14.6 101200 39
2011-06-17 08:47:25 51°26.721 2°45.214 0.1 259 14.6 101200 39
2011-06-17 08:47:30 51°26.736 2°45.201 0.1 257 14.6 101200 39
2011-06-17 08:47:35 51°26.752 2°45.189 -999 250 14.6 101200 39
2011-06-17 08:47:40 51°26.768 2°45.177 -999 247 14.6 101210 38
2011-06-17 08:47:45 51°26.783 2°45.165 -999 249 14.6 101210 38
2011-06-17 08:47:50 51°26.799 2°45.152 -999 24 14.5 101200 38
2011-06-17 08:47:55 51°26.815 2°45.142 -999 246 14.5 101200 38
2011-06-17 08:48:00 51°26.831 2°45.13 -999 24 14.5 101200 38
2011-06-17 08:48:05 51°26.847 2°45.119 -999 253 14.5 101200 38
2011-06-17 08:48:10 51°26.862 2°45.107 -999 254 14.5 101200 39
2011-06-17 08:48:15 51°26.878 2°45.097 -999 253 14.5 101200 39
2011-06-17 08:48:20 51°26.894 2°45.086 2.1 246 14.5 101200 37
2011-06-17 08:48:25 51°26.91 2°45.075 0.4 250 14.5 101200 37
2011-06-17 08:48:29 51°26.922 2°45.066 0.2 254 14.5 101200 39
2011-06-17 08:48:35 51°26.941 2°45.053 0.1 255 14.5 101200 39
2011-06-17 08:48:40 51°26.957 2°45.041 -999 254 14.6 101210 39
2011-06-17 08:48:45 51°26.973 2°45.031 -999 252 14.6 101210 39
2011-06-17 08:48:50 51°26.989 2°45.019 -999 254 14.6 101200 39
2011-06-17 08:48:55 51°27.005 2°45.008 -999 242 14.6 101200 39
2011-06-17 08:49:00 51°27.021 2°44.996 -999 24 14.6 101200 39
2011-06-17 08:49:05 51°27.037 2°44.984 -999 251 14.6 101200 39
2011-06-17 08:49:10 51°27.052 2°44.971 -999 255 14.6 101200 39
2011-06-17 08:49:15 51°27.068 2°44.959 -999 245 14.6 101200 39
2011-06-17 08:49:20 51°27.084 2°44.947 -999 252 14.6 101200 39
2011-06-17 08:49:25 51°27.099 2°44.935 -999 253 14.6 101200 39
2011-06-17 08:49:30 51°27.115 2°44.923 0.1 252 14.6 101190 39
2011-06-17 08:49:35 51°27.131 2°44.91 4.8 252 14.6 101190 39
2011-06-17 08:49:40 51°27.146 2°44.897 4.2 251 14.6 101200 39
2011-06-17 08:49:45 51°27.162 2°44.885 4.3 255 14.6 101200 39
2011-06-17 08:49:49 51°27.175 2°44.875 3.3 252 14.6 101190 39
2011-06-17 08:49:55 51°27.193 2°44.859 4.7 258 14.6 101190 39
2011-06-17 08:50:00 51°27.209 2°44.846 3.8 259 14.6 101200 38
2011-06-17 08:50:05 51°27.224 2°44.833 4.7 257 14.6 101200 38
2011-06-17 08:50:09 51°27.237 2°44.823 4.1 255 14.6 101200 39
2011-06-17 08:50:15 51°27.255 2°44.807 3.6 251 14.6 101200 39
2011-06-17 08:50:20 51°27.271 2°44.794 4.2 253 14.6 101190 38
2011-06-17 08:50:25 51°27.286 2°44.781 4.9 258 14.6 101190 38